Overview Statistics Trail Chart Weather Telemetry Raw packets
 

This is the latest recevied weather packets stored in our database for station/object OE2WAO-15. If no packets are shown the sender has not sent any weather packets the latest 10 day(s).

<< 3 4 5 6 7 8 9 >>
Time Temp. Humidity Pressure Rain* Wind** Luminosity Snow
1788435359 25.56° C 99% 1022.4 hPa - - - -
1788434752 25.56° C 99% 1022.4 hPa - - - -
1788434144 25° C 99% 1022.4 hPa - - - -
1788433537 24.44° C 99% 1022.4 hPa - - - -
1788432929 25° C 99% 1022.5 hPa - - - -
1788432321 25° C 99% 1022.5 hPa - - - -
1788431714 24.44° C 99% 1022.6 hPa - - - -
1788431107 24.44° C 99% 1022.6 hPa - - - -
1788430499 23.89° C 99% 1022.7 hPa - - - -
1788429892 23.33° C 99% 1022.9 hPa - - - -
1788429284 22.78° C 99% 1023 hPa - - - -
1788428677 22.78° C 99% 1022.9 hPa - - - -
1788428069 22.22° C 99% 1023 hPa - - - -
1788427462 22.22° C 99% 1023.1 hPa - - - -
1788426854 21.67° C 99% 1023.1 hPa - - - -
1788426247 21.67° C 99% 1023 hPa - - - -
1788425639 21.11° C 99% 1023 hPa - - - -
1788425032 21.11° C 99% 1023.2 hPa - - - -
1788424424 20.56° C 99% 1023.2 hPa - - - -
1788423816 20.56° C 99% 1023.2 hPa - - - -
1788423209 20.56° C 99% 1023.1 hPa - - - -
1788422601 20° C 99% 1023.3 hPa - - - -
1788421994 20.56° C 99% 1023.3 hPa - - - -
1788421386 20° C 99% 1023.2 hPa - - - -
1788420778 20° C 99% 1023.1 hPa - - - -

* Rain since midnight (hover to see other rain measurements)
** Current wind speed in m/s (hover to see current wind gust speed)